Location: Unspecified
(45.1473°N, 0.0000°E)
Time: 07:38:27
(UTC+00:00)

Vanguard 3 - All Passes

Search period start: 04 April 2026 00:00
Search period end: 14 April 2026 00:00
Orbit: 508 x 3205 km, 33.3° (Epoch: 28 March)

Date Brightness Start Highest point End Pass type
(mag) Time Alt. Az. Time Alt. Az. Time Alt. Az.
4 Apr - 02:18:46 10° S 02:21:59 16° SSE 02:26:08 10° ESE visible
4 Apr - 04:26:18 10° SW 04:31:58 35° S 04:41:13 10° ESE visible
4 Apr - 06:35:52 10° WSW 06:43:25 36° S 06:55:33 10° SE daylight
4 Apr - 08:47:36 10° WSW 08:55:52 22° SSW 09:07:02 10° SSE daylight
5 Apr - 03:06:19 10° SW 03:10:38 25° SSE 03:16:58 10° ESE visible
5 Apr - 05:15:02 10° WSW 05:21:14 36° S 05:31:22 10° ESE daylight
5 Apr - 07:25:24 10° WSW 07:33:04 28° SSW 07:44:33 10° SSE daylight
5 Apr - 09:40:13 10° WSW 09:45:36 13° SSW 09:51:51 10° S daylight
6 Apr - 01:47:22 10° S 01:49:45 14° SSE 01:52:35 10° ESE visible
6 Apr - 03:54:39 10° SW 03:59:34 31° S 04:07:16 10° ESE visible
6 Apr - 06:04:07 10° WSW 06:10:40 32° S 06:21:04 10° SE daylight
6 Apr - 08:15:50 10° WSW 08:22:46 20° SSW 08:32:04 10° SSE daylight
7 Apr - 02:34:44 10° SSW 02:38:23 22° SSE 02:43:26 10° ESE visible
7 Apr - 04:43:23 10° WSW 04:48:44 32° S 04:57:14 10° ESE visible
7 Apr - 06:53:41 10° WSW 07:00:14 25° SSW 07:09:51 10° SSE daylight
7 Apr - 09:09:44 10° SW 09:12:29 11° SSW 09:15:27 10° SSW daylight
8 Apr - 01:16:05 10° S 01:17:33 11° SSE 01:19:09 10° SE visible
8 Apr - 03:23:04 10° SW 03:27:18 27° S 03:33:34 10° ESE visible
8 Apr - 05:32:29 10° WSW 05:38:05 28° S 05:46:43 10° SE daylight
8 Apr - 07:44:21 10° WSW 07:49:52 16° SSW 07:57:00 10° S daylight
9 Apr - 02:03:10 10° SSW 02:06:14 19° SSE 02:10:08 10° ESE visible
9 Apr - 04:11:48 10° WSW 04:16:24 27° S 04:23:19 10° SE visible
9 Apr - 06:22:08 10° WSW 06:27:34 21° SSW 06:35:15 10° SSE daylight
10 Apr - 02:51:29 10° SW 02:55:06 23° S 03:00:05 10° ESE visible
10 Apr - 05:00:56 10° WSW 05:05:40 23° S 05:12:33 10° SE daylight
10 Apr - 07:13:18 10° SW 07:17:07 13° SSW 07:21:45 10° S daylight
11 Apr - 01:31:33 10° SSW 01:34:05 16° SSE 01:37:05 10° SE visible
11 Apr - 03:40:15 10° SW 03:44:08 23° S 03:49:38 10° SE visible
11 Apr - 05:50:46 10° SW 05:55:03 17° SSW 06:00:43 10° SSE daylight
12 Apr - 02:19:53 10° SW 02:22:57 20° S 02:26:52 10° SE visible
12 Apr - 04:29:30 10° SW 04:33:20 19° S 04:38:34 10° SSE visible
13 Apr - 00:59:50 10° SSW 01:01:58 14° SSE 01:04:18 10° SE night (unlit)
13 Apr - 03:08:44 10° SW 03:11:58 19° S 03:16:11 10° SE visible
13 Apr - 05:19:44 10° SW 05:22:38 13° SSW 05:26:11 10° S daylight
